WetterOnline ( https://www.wetteronline.ch )

Wetter aktuell Konstanz

Aktuelles Wetter: Konstanz (397m)

6-stündlich | Neueste Meldungen
Ortszeit Temperatur Wetter
So, 26.01. 13:00 0.7° C bedeckt
So, 26.01. 7:00 -0.2° C Nebel
So, 26.01. 1:00 0.2° C Nebel
Sa, 25.01. 19:00 1.5° C bedeckt
Sa, 25.01. 13:00 1.0° C bedeckt
Sa, 25.01. 7:00 -0.3° C Nebel
Sa, 25.01. 1:00 -0.2° C Nebel
Fr, 24.01. 19:00 -0.2° C bedeckt
Ortszeit Temperatur Wetter
So, 26.01. 15:30 2.5° C bedeckt
So, 26.01. 15:20 2.5° C bedeckt
So, 26.01. 15:10 2.5° C bedeckt
So, 26.01. 15:00 2.3° C bedeckt
So, 26.01. 14:50 2.3° C bedeckt
So, 26.01. 14:40 2.3° C bedeckt
So, 26.01. 14:30 2.3° C bedeckt
So, 26.01. 14:00 2.1° C bedeckt
So, 26.01. 13:30 1.5° C bedeckt
So, 26.01. 13:00 0.7° C bedeckt
So, 26.01. 12:30 0.3° C Nebel
Ortszeit Relative Feuchte Sichtweite
So, 26.01. 13:00 95% 1.3 km
So, 26.01. 7:00 99% 0.2 km
So, 26.01. 1:00 99% 0.4 km
Sa, 25.01. 19:00 97% 1.6 km
Sa, 25.01. 13:00 92% 5.0 km
Sa, 25.01. 7:00 99% 0.2 km
Sa, 25.01. 1:00 97% 0.3 km
Fr, 24.01. 19:00 90% 7 km
Ortszeit Relative Feuchte Sichtweite
So, 26.01. 15:30 90% 4.8 km
So, 26.01. 15:20 90% -
So, 26.01. 15:10 90% -
So, 26.01. 15:00 92% 4.9 km
So, 26.01. 14:50 92% -
So, 26.01. 14:40 91% -
So, 26.01. 14:30 90% 6 km
So, 26.01. 14:00 92% 4.5 km
So, 26.01. 13:30 94% 2.0 km
So, 26.01. 13:00 95% 1.3 km
So, 26.01. 12:30 96% 0.4 km
Ortszeit Niederschlagsmenge Niederschlagsart
So, 26.01. 13:00 0.0 l/m2 in 6 Std. -
So, 26.01. 7:00 0.0 l/m2 in 12 Std. -
So, 26.01. 1:00 0.0 l/m2 in 6 Std. -
Sa, 25.01. 19:00 0.0 l/m2 in 12 Std. -
Sa, 25.01. 13:00 0.0 l/m2 in 6 Std. -
Sa, 25.01. 7:00 0.0 l/m2 in 12 Std. -
Sa, 25.01. 1:00 0.0 l/m2 in 6 Std. -
Fr, 24.01. 19:00 0.0 l/m2 in 12 Std. -
Ortszeit Niederschlagsmenge Niederschlagsart
So, 26.01. 15:30 0.0 l/m2 in 1 Std. -
So, 26.01. 15:20 keine Meldung -
So, 26.01. 15:10 keine Meldung -
So, 26.01. 15:00 0.0 l/m2 in 1 Std. -
So, 26.01. 14:50 keine Meldung -
So, 26.01. 14:40 keine Meldung -
So, 26.01. 14:30 0.0 l/m2 in 1 Std. -
So, 26.01. 14:00 0.0 l/m2 in 1 Std. -
So, 26.01. 13:30 0.0 l/m2 in 1 Std. -
So, 26.01. 13:00 0.0 l/m2 in 1 Std. -
So, 26.01. 12:30 0.0 l/m2 in 1 Std. -
Ortszeit Stärke Spitze Richtung
km/h Bft. km/h Grad Sektor
So, 26.01. 13:00 4 1 11 270° W
So, 26.01. 7:00 0 0 11 - -
So, 26.01. 1:00 0 0 7 - -
Sa, 25.01. 19:00 2 1 7 100° O
Sa, 25.01. 13:00 4 1 7 350° N
Sa, 25.01. 7:00 0 0 11 - -
Sa, 25.01. 1:00 0 0 7 - -
Fr, 24.01. 19:00 0 0 11 - -
Ortszeit Stärke Spitze Richtung
km/h Bft. km/h Grad Sektor
So, 26.01. 15:30 4 1 4 210° SW
So, 26.01. 15:20 4 1 - 210° SW
So, 26.01. 15:10 4 1 - 160° S
So, 26.01. 15:00 4 1 7 110° O
So, 26.01. 14:50 4 1 - 110° O
So, 26.01. 14:40 4 1 - 50° NO
So, 26.01. 14:30 4 1 7 150° SO
So, 26.01. 14:00 4 1 7 10° N
So, 26.01. 13:30 4 1 7 280° W
So, 26.01. 13:00 4 1 11 270° W
So, 26.01. 12:30 4 1 11 260° W
Ortszeit Untergrenze Bedeckung Gattung
total tief tief mittel hoch
So, 26.01. 13:00 30 m 8/8 8/8 - - -
So, 26.01. 7:00 <30 m 8/8 0/8 - - -
So, 26.01. 1:00 <30 m 8/8 0/8 - - -
Sa, 25.01. 19:00 30 m 8/8 8/8 - - -
Sa, 25.01. 13:00 60 m 8/8 8/8 - - -
Sa, 25.01. 7:00 <30 m 8/8 0/8 - - -
Sa, 25.01. 1:00 <30 m 8/8 0/8 - - -
Fr, 24.01. 19:00 3000 m 8/8 8/8 - - -
Ortszeit Bedeckungsgrad in Achtel und Wolkenuntergrenze
So, 26.01. 15:30 8(120m)
So, 26.01. 15:20 8(120m)
So, 26.01. 15:10 8(90m)
So, 26.01. 15:00 8(90m)
So, 26.01. 14:50 8(90m)
So, 26.01. 14:40 8(90m)
So, 26.01. 14:30 8(90m)
So, 26.01. 14:00 8(60m)
So, 26.01. 13:30 8(30m)
So, 26.01. 13:00 8(30m)
So, 26.01. 12:30 8(<30m)
Ortszeit Luftdruck NN (hPa) Tendenz (hPa in 3 Std.)
So, 26.01. 13:00 1022 - 0,5
So, 26.01. 7:00 1023 0,0
So, 26.01. 1:00 1023 - 0,4
Sa, 25.01. 19:00 1023 + 0,2
Sa, 25.01. 13:00 1025 - 0,5
Sa, 25.01. 7:00 1025 + 0,3
Sa, 25.01. 1:00 1025 - 0,6
Fr, 24.01. 19:00 1026 + 0,2
Ortszeit Luftdruck NN (hPa) Tendenz (hPa in 3 Std.)
So, 26.01. 15:30 1021 - 1,1
So, 26.01. 15:20 1021 keine Meldung
So, 26.01. 15:10 1021 keine Meldung
So, 26.01. 15:00 1021 - 1,3
So, 26.01. 14:50 1021 keine Meldung
So, 26.01. 14:40 1021 keine Meldung
So, 26.01. 14:30 1021 - 1,4
So, 26.01. 14:00 1021 - 1,1
So, 26.01. 13:30 1022 - 0,9
So, 26.01. 13:00 1022 - 0,5
So, 26.01. 12:30 1023 - 0,2
Ortszeit Schneehöhe (cm)
So, 26.01. 13:00 0
So, 26.01. 7:00 0
So, 26.01. 1:00 0
Sa, 25.01. 19:00 0
Sa, 25.01. 13:00 0
Sa, 25.01. 7:00 0
Sa, 25.01. 1:00 0
Fr, 24.01. 19:00 0
Ortszeit Schneehöhe (cm)
So, 26.01. 15:30 0
So, 26.01. 15:20 0
So, 26.01. 15:10 0
So, 26.01. 15:00 0
So, 26.01. 14:50 0
So, 26.01. 14:40 0
So, 26.01. 14:30 0
So, 26.01. 14:00 0
So, 26.01. 13:30 0
So, 26.01. 13:00 0
So, 26.01. 12:30 0
Link zu dieser Seite / Seite empfehlen

Das Wetter in ...